When you browse on this site, cookies collect data to enhance your experience and personalize the content and advertising you see.
Visit our Privacy Policy to learn more. By continuing to use the site, you agree to this use of cookies and data.
  • en Belgique
  • Liste des pays
  • À 7 jours
  • Température de l'eau
  • Carte météo
  • Widgets météo
  • user-avatar
    Se connecter

    Météo par heure à Kerkira

    Ce jour, 22 Janvier, Mercredi

    Heure Température Précipitation Vent Pression Humidité
    00:00 +7°C° 0 mm 2 m/s 776 mmHg 56%
    01:00 +8°C° 0 mm 1 m/s 775 mmHg 54%
    02:00 +7°C° 0 mm 2 m/s 775 mmHg 53%
    03:00 +7°C° 0 mm 2 m/s 775 mmHg 52%
    04:00 +7°C° 0 mm 2 m/s 774 mmHg 51%
    05:00 +8°C° 0 mm 1 m/s 774 mmHg 50%
    06:00 +7°C° 0 mm 1 m/s 774 mmHg 49%
    07:00 +7°C° 0 mm 1 m/s 774 mmHg 49%
    08:00 +9°C° 0 mm 1 m/s 774 mmHg 46%
    09:00 +11°C° 0 mm 1 m/s 774 mmHg 44%
    10:00 +12°C° 0 mm 1 m/s 774 mmHg 42%
    11:00 +13°C° 0 mm 1 m/s 773 mmHg 42%
    12:00 +13°C° 0 mm 2 m/s 772 mmHg 42%
    13:00 +14°C° 0 mm 2 m/s 772 mmHg 43%
    14:00 +13°C° 0 mm 2 m/s 772 mmHg 47%
    15:00 +13°C° 0 mm 2 m/s 771 mmHg 51%
    16:00 +11°C° 0 mm 3 m/s 771 mmHg 56%
    17:00 +10°C° 0 mm 3 m/s 771 mmHg 56%
    18:00 +10°C° 0 mm 3 m/s 771 mmHg 56%
    19:00 +9°C° 0 mm 3 m/s 770 mmHg 56%
    20:00 +8°C° 0 mm 3 m/s 770 mmHg 55%
    21:00 +8°C° 0 mm 3 m/s 770 mmHg 54%
    22:00 +8°C° 0 mm 3 m/s 770 mmHg 53%
    23:00 +6°C° 0 mm 4 m/s 770 mmHg 53%

    Demain, 23 Janvier, Jeudi

    Heure Température Précipitation Vent Pression Humidité
    00:00 +6°C° 0 mm 4 m/s 770 mmHg 52%
    01:00 +6°C° 0 mm 4 m/s 770 mmHg 52%
    02:00 +6°C° 0 mm 4 m/s 769 mmHg 54%
    03:00 +6°C° 0 mm 4 m/s 769 mmHg 55%
    04:00 +6°C° 0 mm 4 m/s 768 mmHg 57%
    05:00 +5°C° 0 mm 4 m/s 769 mmHg 58%
    06:00 +5°C° 0 mm 4 m/s 769 mmHg 59%
    07:00 +5°C° 0 mm 4 m/s 769 mmHg 61%
    08:00 +8°C° 0 mm 3 m/s 769 mmHg 56%
    09:00 +10°C° 0 mm 3 m/s 769 mmHg 52%
    10:00 +12°C° 0 mm 2 m/s 769 mmHg 48%
    11:00 +13°C° 0 mm 2 m/s 769 mmHg 47%
    12:00 +14°C° 0 mm 2 m/s 769 mmHg 46%
    13:00 +15°C° 0 mm 2 m/s 768 mmHg 45%
    14:00 +14°C° 0 mm 2 m/s 769 mmHg 49%
    15:00 +14°C° 0 mm 1 m/s 769 mmHg 53%
    16:00 +13°C° 0 mm 1 m/s 769 mmHg 56%
    17:00 +12°C° 0 mm 1 m/s 769 mmHg 58%
    18:00 +12°C° 0 mm 2 m/s 769 mmHg 59%
    19:00 +10°C° 0 mm 2 m/s 770 mmHg 60%
    20:00 +9°C° 0 mm 2 m/s 770 mmHg 59%
    21:00 +9°C° 0 mm 3 m/s 771 mmHg 58%
    22:00 +8°C° 0 mm 4 m/s 771 mmHg 57%
    23:00 +8°C° 0 mm 4 m/s 771 mmHg 58%

    Après-demain, 24 Janvier, Vendredi

    Heure Température Précipitation Vent Pression Humidité
    00:00 +8°C° 0 mm 4 m/s 772 mmHg 58%
    01:00 +7°C° 0 mm 4 m/s 772 mmHg 58%
    02:00 +7°C° 0 mm 4 m/s 772 mmHg 57%
    03:00 +7°C° 0 mm 4 m/s 772 mmHg 57%
    04:00 +7°C° 0 mm 4 m/s 772 mmHg 56%
    05:00 +7°C° 0 mm 4 m/s 772 mmHg 57%
    06:00 +6°C° 0 mm 4 m/s 773 mmHg 59%
    07:00 +6°C° 0 mm 4 m/s 773 mmHg 60%
    08:00 +8°C° 0 mm 4 m/s 773 mmHg 58%
    09:00 +10°C° 0 mm 4 m/s 773 mmHg 57%
    10:00 +12°C° 0 mm 4 m/s 773 mmHg 55%
    11:00 +12°C° 0 mm 4 m/s 773 mmHg 58%
    12:00 +13°C° 0 mm 5 m/s 773 mmHg 62%
    13:00 +13°C° 0 mm 5 m/s 772 mmHg 65%
    14:00 +13°C° 0 mm 4 m/s 772 mmHg 69%
    15:00 +13°C° 0 mm 4 m/s 772 mmHg 72%
    16:00 +12°C° 0 mm 4 m/s 772 mmHg 76%
    17:00 +12°C° 0.1 mm 3 m/s 772 mmHg 78%
    18:00 +11°C° 0.1 mm 3 m/s 772 mmHg 80%
    19:00 +11°C° 0.1 mm 3 m/s 772 mmHg 82%
    20:00 +11°C° 0 mm 3 m/s 772 mmHg 82%
    21:00 +11°C° 0 mm 3 m/s 772 mmHg 81%
    22:00 +11°C° 0 mm 3 m/s 772 mmHg 81%
    23:00 +10°C° 0 mm 3 m/s 772 mmHg 80%

    25 Janvier, Samedi

    Heure Température Précipitation Vent Pression Humidité
    00:00 +10°C° 0 mm 2 m/s 772 mmHg 79%
    01:00 +10°C° 0 mm 2 m/s 771 mmHg 79%
    02:00 +10°C° 0.1 mm 2 m/s 771 mmHg 79%
    03:00 +10°C° 0.1 mm 2 m/s 771 mmHg 80%
    04:00 +10°C° 0.1 mm 2 m/s 771 mmHg 81%
    05:00 +10°C° 0.1 mm 2 m/s 771 mmHg 81%
    06:00 +10°C° 0.1 mm 2 m/s 771 mmHg 81%
    07:00 +10°C° 0.1 mm 2 m/s 771 mmHg 82%
    08:00 +12°C° 0.1 mm 2 m/s 771 mmHg 80%
    09:00 +12°C° 0.1 mm 3 m/s 771 mmHg 78%
    10:00 +13°C° 0.1 mm 3 m/s 771 mmHg 76%
    11:00 +13°C° 0.1 mm 3 m/s 771 mmHg 76%
    12:00 +13°C° 0.1 mm 3 m/s 770 mmHg 76%
    13:00 +14°C° 0.1 mm 3 m/s 770 mmHg 77%
    14:00 +13°C° 0.1 mm 3 m/s 769 mmHg 78%
    15:00 +13°C° 0.1 mm 3 m/s 769 mmHg 79%
    16:00 +13°C° 0.1 mm 3 m/s 769 mmHg 80%
    17:00 +13°C° 0.1 mm 3 m/s 769 mmHg 82%
    18:00 +12°C° 0.1 mm 3 m/s 769 mmHg 84%
    19:00 +12°C° 0.1 mm 3 m/s 769 mmHg 86%
    20:00 +11°C° 0.1 mm 3 m/s 769 mmHg 86%
    21:00 +11°C° 0.1 mm 3 m/s 769 mmHg 86%
    22:00 +11°C° 0.1 mm 3 m/s 770 mmHg 86%
    23:00 +11°C° 0 mm 3 m/s 769 mmHg 85%

    26 Janvier, Dimanche

    Heure Température Précipitation Vent Pression Humidité
    00:00 +11°C° 0 mm 3 m/s 769 mmHg 85%
    01:00 +11°C° 0 mm 4 m/s 769 mmHg 85%
    02:00 +11°C° 0 mm 4 m/s 769 mmHg 85%
    03:00 +11°C° 0 mm 4 m/s 769 mmHg 85%
    04:00 +11°C° 0 mm 4 m/s 768 mmHg 85%
    05:00 +11°C° 0 mm 4 m/s 768 mmHg 84%
    06:00 +10°C° 0 mm 4 m/s 768 mmHg 84%
    07:00 +9°C° 0 mm 5 m/s 769 mmHg 84%
    08:00 +10°C° 0 mm 5 m/s 769 mmHg 80%
    09:00 +12°C° 0 mm 5 m/s 769 mmHg 77%
    10:00 +13°C° 0 mm 5 m/s 769 mmHg 73%
    11:00 +13°C° 0.2 mm 6 m/s 768 mmHg 75%
    12:00 +13°C° 0.2 mm 6 m/s 767 mmHg 76%
    13:00 +12°C° 0.2 mm 7 m/s 767 mmHg 78%
    14:00 +13°C° 0.7 mm 6 m/s 767 mmHg 81%
    15:00 +11°C° 0.7 mm 6 m/s 767 mmHg 84%
    16:00 +12°C° 0.7 mm 5 m/s 766 mmHg 87%
    17:00 +12°C° 1.5 mm 5 m/s 767 mmHg 88%
    18:00 +12°C° 1.5 mm 4 m/s 767 mmHg 89%
    19:00 +12°C° 1.5 mm 4 m/s 767 mmHg 90%
    20:00 +12°C° 1 mm 3 m/s 767 mmHg 90%
    21:00 +12°C° 1 mm 3 m/s 767 mmHg 90%
    22:00 +13°C° 1 mm 2 m/s 767 mmHg 90%
    23:00 +13°C° 0.3 mm 2 m/s 767 mmHg 91%

    27 Janvier, Lundi

    Heure Température Précipitation Vent Pression Humidité
    00:00 +13°C° 0.3 mm 2 m/s 767 mmHg 91%
    01:00 +13°C° 0.3 mm 2 m/s 767 mmHg 92%
    02:00 +13°C° 0.2 mm 2 m/s 767 mmHg 91%
    03:00 +12°C° 0.2 mm 3 m/s 767 mmHg 90%
    04:00 +12°C° 0.2 mm 3 m/s 767 mmHg 89%
    05:00 +11°C° 0.1 mm 3 m/s 767 mmHg 88%
    06:00 +11°C° 0.1 mm 3 m/s 767 mmHg 88%
    07:00 +11°C° 0.1 mm 3 m/s 767 mmHg 87%
    08:00 +12°C° 0.2 mm 3 m/s 768 mmHg 83%
    09:00 +15°C° 0.2 mm 2 m/s 768 mmHg 79%
    10:00 +16°C° 0.2 mm 2 m/s 768 mmHg 75%
    11:00 +16°C° 0.1 mm 2 m/s 768 mmHg 72%
    12:00 +17°C° 0.1 mm 2 m/s 768 mmHg 69%
    13:00 +19°C° 0.1 mm 1 m/s 767 mmHg 66%
    14:00 +17°C° 0.1 mm 2 m/s 767 mmHg 70%
    15:00 +17°C° 0.1 mm 2 m/s 767 mmHg 74%
    16:00 +16°C° 0.1 mm 2 m/s 767 mmHg 78%
    17:00 +15°C° 0 mm 2 m/s 767 mmHg 80%
    18:00 +14°C° 0 mm 2 m/s 768 mmHg 82%
    19:00 +13°C° 0 mm 2 m/s 768 mmHg 84%
    20:00 +13°C° 0 mm 2 m/s 768 mmHg 84%
    21:00 +13°C° 0 mm 2 m/s 768 mmHg 84%
    22:00 +13°C° 0 mm 2 m/s 769 mmHg 84%
    23:00 +13°C° 0 mm 2 m/s 769 mmHg 83%
    Voir plus